Wind_Speed
26 25 27 27 27 28 29 29 27 26 27 28 27 27 27 27 26 28 28 25 24 24 22 23 23 23 25 29 31 31 35 33 35 32 34 18 23 26 29 27 21 5 9 15 20
27 27 26 27 28 29 29 29 29 28 26 26 27 26 27 27 27 27 28 26 24 24 25 24 25 26 26 27 31 33 41 39 36 34 33 28 27 26 29 21 21 11 10 19 16
27 27 28 29 30 31 30 31 30 31 30 27 27 25 25 27 25 26 26 22 22 24 23 23 22 25 27 27 32 35 42 37 35 32 31 30 29 30 34 33 25 22 17 14 23
27 28 30 31 31 29 29 31 30 30 28 27 26 25 24 23 17 14 14 14 15 19 18 18 19 21 24 28 30 36 38 36 37 33 34 35 33 38 35 32 26 28 23 18 22
27 30 32 32 31 29 28 28 28 27 26 26 25 24 24 22 21 25 22 21 20 18 17 15 18 20 22 24 27 34 33 34 35 35 36 34 36 35 37 29 27 29 26 18 24
29 29 29 26 23 22 23 25 27 25 24 25 27 27 25 21 21 20 20 19 20 17 20 22 20 21 24 23 25 26 25 28 29 31 32 35 35 33 33 26 29 29 28 22 23
27 25 24 25 24 23 21 23 25 26 27 27 28 26 27 21 22 22 21 21 21 18 18 20 22 23 23 21 21 23 26 24 27 26 30 27 34 36 27 25 29 27 27 26 22
22 24 24 25 22 18 19 24 24 24 25 26 27 29 25 23 23 21 21 20 22 19 16 17 20 22 24 21 21 23 25 22 16 16 17 21 34 25 21 23 23 24 28 30 23
22 23 22 22 20 20 22 24 25 26 24 25 26 26 24 20 15 13 17 21 18 18 17 17 19 22 24 22 23 20 19 20 24 19 18 17 22 22 20 16 19 23 25 29 28
20 20 21 22 21 21 24 25 26 25 24 24 23 14 8 12 12 14 16 14 10 9 13 18 22 24 24 22 15 14 14 17 17 13 14 19 28 23 22 23 26 25 25 28 30
18 18 17 17 17 17 16 19 22 23 18 22 23 23 21 22 24 22 17 11 14 13 13 15 20 28 24 23 22 23 27 26 28 28 28 32 35 27 23 28 28 25 25 28 32
8 9 10 12 14 15 16 18 20 24 23 17 15 16 19 24 22 24 24 21 21 18 16 18 24 20 19 20 21 20 24 29 28 23 22 29 35 33 34 33 27 26 25 26 28
6 8 10 11 14 16 18 20 22 26 30 11 10 8 10 10 11 12 23 27 26 24 20 19 17 16 13 17 15 16 22 26 26 27 28 30 39 36 34 32 31 30 24 23 23
7 9 11 13 14 17 19 21 22 24 16 8 9 9 12 10 6 6 5 21 28 22 21 18 18 20 17 13 13 13 11 11 13 11 9 5 11 10 10 20 27 26 26 22 22
8 11 13 14 15 16 18 19 19 19 6 9 7 6 9 8 8 9 5 2 13 17 17 8 7 7 17 24 18 12 11 11 10 13 18 16 14 8 4 12 18 21 21 19 20
11 13 15 16 16 17 17 17 17 5 5 4 5 7 8 8 8 8 8 6 6 10 13 14 15 14 12 11 14 10 14 11 12 10 8 17 19 7 6 8 7 15 24 22 22
13 15 15 16 17 17 18 16 7 5 5 7 7 9 13 13 12 11 11 11 8 4 5 8 8 11 15 19 18 15 9 3 2 4 5 6 12 22 13 17 11 14 23 22 20
14 16 18 18 19 19 18 15 6 9 12 15 18 19 14 14 8 11 12 15 16 15 11 6 2 2 3 2 4 2 10 4 3 3 4 5 8 6 13 18 18 11 16 19 19
16 18 20 21 21 21 19 11 8 14 16 18 20 18 12 11 8 6 9 11 15 12 10 5 3 2 3 4 2 3 8 9 7 12 6 8 12 10 10 10 12 14 15 17 21
17 20 22 22 22 21 16 11 11 13 16 13 10 7 6 9 6 5 2 4 7 8 13 8 8 10 6 7 9 10 8 4 8 3 5 7 9 5 12 14 20 22 23 23 21
19 21 22 21 20 17 9 7 10 12 15 12 10 14 13 14 13 11 5 3 3 5 11 17 11 6 6 6 6 8 8 4 4 6 3 4 2 4 6 11 12 12 15 18 23
20 17 19 18 15 10 4 5 8 7 6 12 17 21 24 16 14 11 12 7 8 2 3 14 8 13 18 17 8 6 9 11 4 3 8 5 5 5 12 4 10 12 9 11 18
17 14 12 12 7 8 7 6 8 10 4 11 12 11 9 14 11 15 17 17 13 10 5 3 7 4 9 6 10 10 8 4 9 12 10 4 1 6 6 13 13 5 3 6 11
13 6 8 7 4 4 5 4 3 9 7 8 12 10 17 20 21 13 13 11 13 12 10 10 9 8 2 4 3 2 3 9 10 7 13 13 8 12 8 10 15 19 6 4 5
9 4 3 1 3 2 3 5 6 10 6 11 3 11 13 7 12 24 20 21 23 20 9 11 8 11 7 4 4 4 8 9 13 16 11 13 17 11 14 16 12 5 14 13 14
8 5 6 7 7 7 6 5 7 9 12 10 12 15 10 12 8 12 10 13 14 16 10 4 6 9 4 2 3 9 9 9 8 7 18 19 21 12 13 17 15 9 5 4 15
7 6 9 8 7 5 4 5 7 11 7 8 16 18 15 5 13 14 16 17 13 14 18 5 3 4 1 2 8 8 8 6 9 7 11 15 16 17 21 11 15 17 15 9 11
Wind_Direction
291 292 293 294 293 294 295 294 292 290 289 288 286 286 284 281 275 272 271 269 264 263 258 253 247 241 238 236 241 243 240 246 246 255 258 262 258 262 264 258 247 253 279 237 232
286 287 288 288 290 291 292 292 294 294 291 289 287 285 283 280 276 272 271 272 265 261 258 254 249 244 239 237 237 235 243 248 256 258 263 267 259 260 256 250 223 238 250 237 225
285 286 286 289 293 292 292 291 291 291 290 289 287 282 279 279 281 281 278 276 265 259 252 249 242 242 242 240 240 245 246 254 257 264 266 266 265 263 262 259 235 236 227 230 226
285 287 288 290 292 291 292 289 289 287 286 286 284 281 279 278 286 267 270 278 274 263 248 242 243 241 243 246 249 249 256 262 264 266 267 268 270 263 260 264 237 243 236 228 229
285 288 291 293 291 290 288 285 286 287 289 289 289 287 284 280 277 277 277 276 273 267 262 251 256 256 252 252 253 255 262 263 266 266 266 266 263 267 263 262 241 248 237 231 224
291 293 295 293 294 296 293 289 287 289 293 295 289 286 289 293 281 277 268 261 264 256 258 261 259 257 257 257 258 265 272 267 266 266 267 265 266 267 256 252 243 247 235 230 220
292 292 291 290 290 293 296 293 290 292 294 293 292 292 285 292 288 279 270 261 262 255 245 251 256 258 258 265 265 268 270 268 267 272 271 273 265 258 265 256 256 247 235 224 225
283 285 285 287 292 294 292 289 293 299 298 296 293 290 295 289 284 278 271 267 260 258 253 236 250 257 258 258 259 268 273 277 270 275 275 262 264 266 269 271 265 249 237 226 222
282 284 285 288 293 289 287 290 294 299 298 297 294 292 295 290 276 278 277 268 265 265 252 235 242 253 256 257 267 265 263 271 279 273 277 268 278 280 278 266 256 245 240 234 223
286 289 290 293 289 291 296 298 300 300 302 302 300 301 292 287 282 290 271 273 267 248 256 245 236 243 252 249 248 270 271 280 277 273 281 274 271 270 264 259 255 248 240 234 225
287 291 295 298 307 313 315 314 312 310 314 312 302 292 284 276 273 271 270 247 254 255 251 250 240 250 264 270 275 274 275 276 277 277 275 268 270 264 257 256 258 251 249 240 229
293 303 315 326 329 331 331 331 332 327 329 321 307 294 275 271 266 259 251 244 256 260 254 251 258 271 270 263 266 269 275 279 286 293 282 280 275 274 260 256 255 256 257 244 238
295 311 318 325 331 333 331 335 336 334 335 352 353 349 352 307 282 265 248 249 253 251 253 252 264 273 261 250 267 280 278 283 287 296 283 282 280 271 262 260 255 254 252 234 234
306 310 312 319 325 328 329 331 335 336 331 354 6 1 6 1 358 330 278 234 237 250 257 265 260 246 233 232 263 299 320 309 302 292 276 327 287 274 248 251 253 248 244 223 230
306 306 309 312 323 323 324 327 329 335 334 330 356 7 1 11 352 347 348 206 234 249 251 257 256 249 245 243 252 283 309 305 275 277 278 272 275 305 232 262 264 239 235 222 230
303 307 312 318 319 318 315 317 322 334 259 309 306 326 327 337 323 304 309 274 272 245 254 258 257 257 257 244 255 266 301 308 253 273 267 260 229 291 262 273 245 208 213 225 226
311 309 312 316 312 311 307 312 311 212 292 286 276 304 321 325 316 292 285 275 266 275 268 317 285 271 256 257 258 266 274 289 218 217 259 278 219 253 280 254 224 208 209 222 226
311 311 314 314 310 305 303 301 242 258 246 265 284 288 314 312 299 277 270 270 266 260 269 299 311 11 60 274 232 250 212 225 278 245 311 278 239 230 254 223 235 239 217 213 214
314 315 314 313 308 304 301 279 255 254 264 270 276 294 285 250 282 298 274 271 274 269 243 231 259 152 327 306 224 197 209 249 263 269 276 235 250 226 257 266 240 232 235 223 218
316 315 311 310 307 303 296 263 236 247 260 278 287 274 279 270 301 308 265 296 297 266 244 256 256 264 283 254 231 231 271 215 207 262 246 254 249 297 281 259 258 255 254 250 232
316 313 313 310 308 306 299 262 264 263 277 278 259 262 258 297 286 293 248 245 242 240 233 229 232 245 245 250 247 225 253 281 251 236 280 315 161 32 317 306 273 256 246 241 229
312 316 313 311 316 323 314 344 320 297 280 281 278 273 274 282 284 276 248 251 242 222 240 227 240 244 248 261 241 256 257 274 244 276 250 287 281 18 29 349 316 298 256 231 214
315 318 315 315 314 328 331 324 332 334 308 262 266 259 236 253 270 254 257 254 251 183 159 209 229 245 179 148 199 216 233 251 260 274 259 262 210 160 39 67 61 356 345 224 214
315 313 311 314 302 325 358 24 291 340 341 318 285 277 284 256 245 249 258 254 265 257 186 183 223 249 291 119 164 206 278 297 311 288 322 298 298 285 289 336 37 32 80 114 176
307 297 264 222 191 260 310 309 320 318 333 320 13 1 353 307 254 247 257 275 278 275 272 207 219 219 230 208 266 282 292 294 277 283 265 287 301 331 328 316 303 314 40 103 140
286 252 222 211 225 256 280 309 282 295 311 328 332 326 353 331 266 273 248 266 279 264 299 216 214 218 207 159 255 285 298 294 307 292 273 284 286 319 295 281 279 221 232 11 115
288 247 236 230 234 252 266 282 279 286 296 300 322 317 313 298 257 261 256 260 252 249 277 260 167 220 241 263 300 289 208 284 310 312 314 282 298 300 312 269 250 275 285 227 129
Height
3094 3092 3092 3090 3088 3087 3087 3085 3083 3083 3083 3082 3081 3080 3079 3077 3076 3075 3076 3077 3078 3078 3078 3079 3080 3081 3082 3083 3085 3087 3086 3079 3081 3087 3089 3094 3096 3096 3095 3096 3099 3099 3099 3099 3098
3089 3088 3086 3084 3084 3082 3081 3079 3078 3078 3076 3075 3075 3075 3073 3071 3070 3070 3071 3071 3072 3071 3073 3073 3074 3075 3076 3077 3077 3079 3075 3076 3079 3082 3085 3087 3090 3091 3089 3090 3093 3094 3095 3094 3094
3083 3081 3080 3079 3078 3077 3076 3075 3073 3072 3071 3069 3068 3068 3067 3064 3066 3065 3063 3065 3065 3066 3066 3068 3068 3069 3069 3071 3070 3070 3066 3072 3074 3078 3079 3080 3082 3082 3081 3081 3089 3089 3090 3089 3090
3078 3076 3075 3073 3072 3072 3071 3069 3067 3065 3064 3064 3062 3060 3061 3060 3064 3058 3058 3059 3060 3060 3061 3063 3064 3064 3064 3064 3067 3063 3065 3069 3069 3073 3073 3073 3074 3071 3073 3076 3082 3081 3083 3084 3085
3072 3070 3069 3068 3067 3067 3065 3063 3062 3061 3060 3058 3056 3055 3056 3057 3057 3054 3054 3056 3056 3057 3057 3058 3061 3061 3060 3059 3062 3059 3061 3063 3064 3065 3065 3066 3065 3066 3064 3071 3075 3075 3077 3079 3081
3066 3064 3063 3062 3062 3062 3061 3058 3057 3057 3055 3053 3051 3050 3051 3052 3051 3050 3049 3050 3051 3052 3053 3055 3057 3058 3057 3056 3056 3056 3055 3056 3056 3057 3057 3057 3059 3060 3061 3066 3066 3067 3071 3075 3076
3060 3060 3059 3057 3057 3057 3056 3053 3051 3052 3051 3049 3047 3044 3045 3048 3046 3045 3044 3045 3046 3046 3047 3049 3052 3053 3053 3052 3051 3051 3049 3049 3051 3051 3050 3053 3048 3051 3058 3059 3058 3062 3065 3069 3071
3055 3054 3053 3052 3052 3052 3050 3048 3047 3046 3046 3044 3042 3040 3038 3040 3039 3039 3039 3040 3041 3042 3043 3044 3047 3048 3048 3049 3048 3046 3046 3044 3045 3046 3046 3047 3039 3049 3052 3053 3053 3056 3059 3062 3065
3051 3050 3048 3048 3048 3047 3046 3044 3042 3042 3040 3039 3038 3036 3035 3034 3032 3033 3034 3035 3036 3037 3038 3039 3042 3043 3044 3044 3043 3042 3040 3040 3041 3044 3043 3041 3039 3044 3046 3046 3048 3050 3052 3055 3059
3047 3046 3044 3044 3043 3043 3042 3040 3037 3036 3036 3035 3033 3035 3031 3031 3030 3029 3030 3032 3032 3032 3033 3035 3038 3037 3039 3040 3038 3038 3037 3037 3037 3039 3037 3035 3034 3039 3040 3040 3041 3041 3044 3047 3051
3044 3042 3041 3040 3040 3038 3039 3036 3037 3034 3032 3032 3030 3027 3026 3026 3027 3026 3027 3028 3029 3031 3031 3031 3033 3030 3035 3035 3035 3035 3033 3032 3033 3034 3033 3029 3027 3030 3032 3033 3032 3034 3036 3040 3044
3041 3039 3037 3037 3036 3034 3035 3033 3032 3028 3027 3025 3022 3020 3018 3018 3018 3021 3021 3025 3025 3026 3027 3029 3026 3029 3029 3031 3031 3030 3029 3026 3027 3028 3028 3024 3018 3020 3022 3022 3025 3028 3030 3032 3037
3037 3036 3034 3034 3033 3033 3031 3031 3028 3023 3020 3020 3018 3017 3015 3015 3014 3015 3017 3018 3020 3022 3023 3024 3025 3024 3024 3027 3027 3026 3024 3023 3024 3022 3021 3019 3008 3008 3012 3015 3017 3021 3024 3027 3031
3033 3033 3033 3032 3033 3030 3030 3028 3026 3023 3019 3019 3017 3017 3015 3013 3013 3011 3011 3015 3015 3018 3021 3020 3019 3019 3021 3022 3024 3023 3022 3021 3021 3022 3019 3019 3005 3005 3007 3008 3010 3014 3017 3021 3025
3030 3031 3030 3030 3029 3028 3028 3026 3025 3024 3022 3019 3017 3016 3014 3016 3016 3014 3012 3012 3013 3015 3018 3018 3016 3015 3016 3018 3020 3021 3020 3019 3020 3019 3017 3016 3014 2999 3001 3001 3003 3008 3012 3016 3020
3026 3027 3027 3027 3026 3025 3024 3024 3025 3026 3019 3017 3015 3014 3014 3015 3015 3014 3015 3014 3015 3013 3014 3014 3014 3014 3014 3015 3017 3017 3018 3017 3017 3017 3012 3008 3010 2997 2996 2996 2997 2999 3004 3008 3013
3023 3023 3023 3024 3023 3021 3021 3023 3024 3021 3020 3016 3013 3013 3013 3013 3013 3012 3013 3014 3015 3014 3012 3011 3010 3010 3011 3012 3013 3015 3018 3016 3015 3014 3005 3003 3005 2996 2995 2992 2993 2995 2999 3004 3007
3019 3020 3019 3020 3018 3018 3018 3020 3020 3016 3016 3013 3012 3012 3012 3011 3011 3010 3010 3010 3010 3011 3011 3011 3010 3008 3009 3009 3010 3012 3015 3014 3009 3007 3003 3001 2997 2992 2988 2987 2989 2992 2995 3000 3003
3015 3015 3016 3015 3013 3013 3015 3014 3013 3012 3011 3010 3010 3008 3008 3009 3010 3008 3007 3007 3006 3007 3010 3008 3007 3007 3007 3008 3010 3010 3011 3012 3011 3009 3006 2997 2991 2989 2986 2985 2986 2988 2991 2995 2999
3010 3010 3011 3010 3008 3008 3009 3009 3009 3008 3008 3008 3008 3008 3005 3005 3007 3006 3004 3005 3003 3003 3005 3005 3005 3004 3005 3006 3006 3007 3009 3008 3009 3007 2998 2989 2989 2986 2982 2982 2982 2983 2987 2990 2993
3005 3005 3004 3004 3002 3002 3004 3005 3005 3006 3006 3007 3005 3004 3003 3003 3003 3003 3002 3002 3000 3000 3000 3002 3003 3003 3003 3003 3003 3005 3005 3006 3006 3005 2998 2991 2988 2986 2982 2978 2978 2979 2980 2983 2986
3001 3001 3000 2998 3000 2998 3001 3002 3003 3003 3003 3001 3000 3000 3000 3001 2999 3000 2999 2998 2996 2996 2998 2999 2999 2998 2998 3000 3000 3002 3002 3003 3004 3001 2997 2994 2989 2985 2981 2978 2978 2977 2977 2977 2980
2997 2996 2995 2995 2995 2997 2999 3000 3000 3000 2999 2998 2997 2998 2997 2997 2998 2996 2995 2995 2995 2993 2994 2996 2995 2995 2995 2997 2996 2997 2999 2998 2999 2998 2994 2993 2989 2983 2984 2979 2977 2977 2976 2975 2976
2994 2993 2992 2993 2994 2997 2998 2999 2999 2998 2997 2996 2994 2995 2994 2992 2993 2990 2990 2991 2990 2990 2989 2990 2991 2993 2991 2991 2993 2995 2996 2996 2997 2997 2992 2990 2986 2984 2979 2982 2979 2979 2977 2975 2976
2990 2989 2990 2992 2994 2995 2997 2997 2997 2996 2996 2993 2992 2991 2989 2986 2986 2986 2988 2987 2986 2986 2985 2987 2988 2991 2991 2988 2989 2990 2991 2993 2993 2993 2992 2986 2985 2984 2982 2981 2979 2980 2978 2975 2977
2987 2988 2988 2990 2992 2994 2994 2995 2994 2994 2994 2993 2991 2989 2986 2986 2985 2983 2984 2985 2984 2984 2983 2983 2985 2989 2987 2985 2986 2986 2988 2988 2988 2987 2985 2982 2979 2982 2981 2978 2979 2978 2978 2978 2976
2982 2984 2986 2988 2990 2992 2992 2992 2992 2991 2992 2991 2989 2986 2985 2983 2982 2981 2981 2981 2981 2983 2981 2982 2983 2986 2983 2983 2984 2984 2984 2985 2986 2985 2984 2980 2979 2977 2976 2975 2977 2977 2979 2980 2981